This demonstration page uses our WeatherBlox Daily Observations layout. Learn more.

Left ArrowRight Arrow

Hourly Observations for January 18, 2016

Temp ( °F °C ) Dew Point ( °F °C ) Humidity (%) Winds ( mph kmh ) Pressure ( in mb ) Visibility ( mi km ) Precip ( " mm )
12:33 am 00:33 Cloudy 35 1.7 31 -0.6 85 85 WSW 7 11 29.88 1012 10 16 0.00 0.00
12:59 am 00:59 Mostly Cloudy 35 1.7 31 -0.6 85 85 WSW 8 13 29.88 1012 10 16 0.00 0.00
1:59 am 01:59 Mostly Cloudy 35 1.7 30 -1.1 82 82 WSW 8 13 29.88 1012 10 16 0.00 0.00
2:59 am 02:59 Mostly Clear 35 1.7 27 -2.8 72 72 W 10 17 29.91 1013 10 16 0.00 0.00
3:59 am 03:59 Clear 35 1.7 25 -3.9 67 67 W 14 22 29.91 1013 10 16 0.00 0.00
4:59 am 04:59 Clear 35 1.7 23 -5 61 61 W 20 31 29.91 1013 10 16 0.00 0.00
5:59 am 05:59 Clear 34 1.1 23 -5 64 64 WNW 20 31 29.93 1014 10 16 0.00 0.00
6:59 am 06:59 Mostly Clear 33 0.6 22 -5.6 64 64 WNW 15 24 29.96 1015 10 16 0.00 0.00
7:59 am 07:59 Mostly Sunny 32 0 20 -6.7 61 61 NW 17 28 30.00 1016 10 16 0.00 0.00
8:59 am 08:59 Mostly Sunny 31 -0.6 15 -9.4 52 52 NNW 18 30 30.04 1017 10 16 0.00 0.00
9:59 am 09:59 Mostly Sunny 31 -0.6 15 -9.4 52 52 NNW 17 28 30.06 1018 10 16 0.00 0.00
10:59 am 10:59 Mostly Sunny 31 -0.6 13 -10.6 47 47 NW 20 31 30.08 1019 10 16 0.00 0.00
11:59 am 11:59 Mostly Sunny 32 0 11 -11.7 41 41 NNW 18 30 30.06 1018 10 16 0.00 0.00
12:59 pm 12:59 Mostly Sunny 33 0.6 10 -12.2 38 38 NW 17 28 30.05 1018 10 16 0.00 0.00
1:59 pm 13:59 Mostly Sunny 33 0.6 9 -12.8 36 36 WNW 16 26 30.05 1018 10 16 0.00 0.00
2:59 pm 14:59 Mostly Sunny 32 0 5 -15 32 32 NW 21 33 30.06 1018 10 16 0.00 0.00
3:59 pm 15:59 Mostly Sunny 31 -0.6 5 -15 33 33 NW 18 30 30.07 1018 10 16 0.00 0.00
4:59 pm 16:59 Mostly Sunny 29 -1.7 4 -15.6 34 34 NW 18 30 30.11 1020 10 16 0.00 0.00
5:59 pm 17:59 Mostly Clear 28 -2.2 3 -16.1 34 34 NW 21 33 30.13 1020 10 16 0.00 0.00
6:59 pm 18:59 Mostly Clear 27 -2.8 3 -16.1 35 35 NW 13 20 30.16 1022 10 16 0.00 0.00
7:59 pm 19:59 Mostly Clear 27 -2.8 3 -16.1 35 35 NNW 17 28 30.19 1022 10 16 0.00 0.00
8:59 pm 20:59 Clear 26 -3.3 0 -17.8 32 32 NW 15 24 30.21 1023 10 16 0.00 0.00
9:59 pm 21:59 Clear 25 -3.9 4 -15.6 40 40 N 10 17 30.23 1024 10 16 0.00 0.00
10:59 pm 22:59 Clear 23 -5 4 -15.6 44 44 NNW 15 24 30.25 1024 10 16 0.00 0.00
11:59 pm 23:59 Clear 22 -5.6 3 -16.1 44 44 NW 13 20 30.25 1024 10 16 0.00 0.00

Powered by AerisWeather